When you browse on this site, cookies collect data to enhance your experience and personalize the content and advertising you see.
Visit our Privacy Policy to learn more. By continuing to use the site, you agree to this use of cookies and data.
  • In Schweiz
  • Länderverzeichnis
  • Für 7 Tage
  • Wassertemperatur
  • Satellitenkarten
  • Wetterkarte
  • Widgets
  • user-avatar
    Anmelden

    Stündliche Wetter Luzern

    Heute, 17 Januar, Donnerstag

    Zeit Temperatur Niederschläge Wind Luftdruck Luftfeuchtigkeit
    00:00 +2°C° 0 mm 2 m/S 718 mmHg 70%
    01:00 +3°C° 0 mm 2 m/S 718 mmHg 70%
    02:00 +2°C° 0 mm 2 m/S 718 mmHg 71%
    03:00 +2°C° 0 mm 2 m/S 717 mmHg 73%
    04:00 +2°C° 0 mm 2 m/S 717 mmHg 75%
    05:00 +2°C° 0 mm 2 m/S 717 mmHg 75%
    06:00 +2°C° 0 mm 2 m/S 717 mmHg 75%
    07:00 +3°C° 0 mm 2 m/S 716 mmHg 73%
    08:00 +4°C° 0 mm 2 m/S 716 mmHg 73%
    09:00 +5°C° 0 mm 2 m/S 716 mmHg 72%
    10:00 +5°C° 0 mm 2 m/S 716 mmHg 72%
    11:00 +6°C° 0.2 mm 2 m/S 716 mmHg 76%
    12:00 +5°C° 0.2 mm 3 m/S 716 mmHg 79%
    13:00 +7°C° 0.2 mm 3 m/S 716 mmHg 83%
    14:00 +5°C° 0.8 mm 3 m/S 716 mmHg 85%
    15:00 +4°C° 0.8 mm 3 m/S 716 mmHg 87%
    16:00 +3°C° 0.8 mm 3 m/S 716 mmHg 88%
    17:00 +3°C° 0.3 mm 3 m/S 717 mmHg 90%
    18:00 +3°C° 0.3 mm 2 m/S 717 mmHg 91%
    19:00 +2°C° 0.3 mm 2 m/S 717 mmHg 92%
    20:00 +2°C° 0.2 mm 2 m/S 717 mmHg 93%
    21:00 +1°C° 0.2 mm 2 m/S 718 mmHg 94%
    22:00 +1°C° 0.2 mm 2 m/S 718 mmHg 94%
    23:00 -1°C° 0 mm 2 m/S 718 mmHg 93%

    Morgen, 18 Januar, Freitag

    Zeit Temperatur Niederschläge Wind Luftdruck Luftfeuchtigkeit
    00:00 -2°C° 0 mm 2 m/S 718 mmHg 93%
    01:00 -2°C° 0 mm 2 m/S 719 mmHg 92%
    02:00 0°C° 0.3 mm 1 m/S 719 mmHg 93%
    03:00 0°C° 0.3 mm 1 m/S 720 mmHg 93%
    04:00 0°C° 0.3 mm 1 m/S 720 mmHg 93%
    05:00 0°C° 0.1 mm 1 m/S 720 mmHg 94%
    06:00 -2°C° 0.1 mm 0 m/S 721 mmHg 95%
    07:00 -2°C° 0.1 mm 0 m/S 721 mmHg 96%
    08:00 -1°C° 0 mm 0 m/S 721 mmHg 93%
    09:00 -1°C° 0 mm 0 m/S 721 mmHg 90%
    10:00 -1°C° 0 mm 0 m/S 722 mmHg 87%
    11:00 +1°C° 0 mm 1 m/S 721 mmHg 82%
    12:00 +2°C° 0 mm 1 m/S 721 mmHg 76%
    13:00 +2°C° 0 mm 2 m/S 721 mmHg 71%
    14:00 +1°C° 0 mm 2 m/S 721 mmHg 74%
    15:00 +2°C° 0 mm 1 m/S 721 mmHg 77%
    16:00 +1°C° 0 mm 1 m/S 721 mmHg 81%
    17:00 0°C° 0 mm 1 m/S 721 mmHg 83%
    18:00 -1°C° 0 mm 1 m/S 721 mmHg 85%
    19:00 -2°C° 0 mm 1 m/S 722 mmHg 88%
    20:00 -2°C° 0 mm 1 m/S 722 mmHg 85%
    21:00 -3°C° 0 mm 1 m/S 722 mmHg 83%
    22:00 -3°C° 0 mm 1 m/S 722 mmHg 81%
    23:00 -3°C° 0 mm 1 m/S 722 mmHg 79%

    übermorgen, 19 Januar, Samstag

    Zeit Temperatur Niederschläge Wind Luftdruck Luftfeuchtigkeit
    00:00 -3°C° 0 mm 1 m/S 721 mmHg 78%
    01:00 -3°C° 0 mm 1 m/S 721 mmHg 77%
    02:00 -3°C° 0 mm 1 m/S 721 mmHg 77%
    03:00 -2°C° 0 mm 1 m/S 721 mmHg 78%
    04:00 -2°C° 0 mm 1 m/S 721 mmHg 78%
    05:00 -2°C° 0 mm 1 m/S 720 mmHg 79%
    06:00 -2°C° 0 mm 1 m/S 720 mmHg 80%
    07:00 -2°C° 0 mm 1 m/S 720 mmHg 80%
    08:00 -2°C° 0 mm 0 m/S 720 mmHg 78%
    09:00 -1°C° 0 mm 0 m/S 720 mmHg 76%
    10:00 0°C° 0 mm 0 m/S 720 mmHg 73%
    11:00 +1°C° 0 mm 0 m/S 720 mmHg 70%
    12:00 +2°C° 0 mm 0 m/S 719 mmHg 67%
    13:00 +4°C° 0 mm 1 m/S 719 mmHg 64%
    14:00 +3°C° 0 mm 0 m/S 718 mmHg 68%
    15:00 +3°C° 0 mm 0 m/S 718 mmHg 72%
    16:00 +2°C° 0 mm 0 m/S 718 mmHg 76%
    17:00 +2°C° 0 mm 1 m/S 718 mmHg 78%
    18:00 +1°C° 0 mm 1 m/S 718 mmHg 80%
    19:00 0°C° 0 mm 1 m/S 718 mmHg 82%
    20:00 -1°C° 0 mm 1 m/S 718 mmHg 81%
    21:00 -1°C° 0 mm 1 m/S 719 mmHg 80%
    22:00 -1°C° 0 mm 1 m/S 719 mmHg 78%
    23:00 -3°C° 0 mm 2 m/S 719 mmHg 76%

    20 Januar, Sonntag

    Zeit Temperatur Niederschläge Wind Luftdruck Luftfeuchtigkeit
    00:00 -3°C° 0 mm 2 m/S 719 mmHg 75%
    01:00 -3°C° 0 mm 2 m/S 719 mmHg 73%
    02:00 -3°C° 0 mm 2 m/S 719 mmHg 71%
    03:00 -3°C° 0 mm 2 m/S 719 mmHg 69%
    04:00 -3°C° 0 mm 2 m/S 718 mmHg 67%
    05:00 -1°C° 0 mm 1 m/S 719 mmHg 66%
    06:00 0°C° 0 mm 1 m/S 719 mmHg 65%
    07:00 0°C° 0 mm 1 m/S 719 mmHg 64%
    08:00 +1°C° 0 mm 1 m/S 719 mmHg 64%
    09:00 +2°C° 0 mm 1 m/S 719 mmHg 63%
    10:00 +2°C° 0 mm 1 m/S 719 mmHg 63%
    11:00 +4°C° 0 mm 1 m/S 719 mmHg 62%
    12:00 +5°C° 0 mm 1 m/S 719 mmHg 62%
    13:00 +6°C° 0 mm 1 m/S 719 mmHg 61%
    14:00 +5°C° 0 mm 1 m/S 719 mmHg 66%
    15:00 +4°C° 0 mm 1 m/S 719 mmHg 71%
    16:00 +4°C° 0 mm 1 m/S 719 mmHg 76%
    17:00 +3°C° 0 mm 1 m/S 720 mmHg 78%
    18:00 +2°C° 0 mm 1 m/S 720 mmHg 81%
    19:00 0°C° 0 mm 1 m/S 721 mmHg 83%
    20:00 0°C° 0 mm 1 m/S 721 mmHg 82%
    21:00 0°C° 0 mm 1 m/S 722 mmHg 81%
    22:00 0°C° 0 mm 1 m/S 722 mmHg 81%
    23:00 0°C° 0 mm 1 m/S 722 mmHg 80%

    21 Januar, Montag

    Zeit Temperatur Niederschläge Wind Luftdruck Luftfeuchtigkeit
    00:00 0°C° 0 mm 1 m/S 722 mmHg 80%
    01:00 0°C° 0 mm 1 m/S 723 mmHg 80%
    02:00 -1°C° 0 mm 1 m/S 723 mmHg 81%
    03:00 -1°C° 0 mm 1 m/S 723 mmHg 81%
    04:00 -1°C° 0 mm 1 m/S 723 mmHg 82%
    05:00 -1°C° 0 mm 1 m/S 723 mmHg 82%
    06:00 -1°C° 0 mm 1 m/S 723 mmHg 83%
    07:00 -1°C° 0 mm 1 m/S 724 mmHg 83%
    08:00 0°C° 0 mm 1 m/S 724 mmHg 81%
    09:00 0°C° 0 mm 0 m/S 724 mmHg 79%
    10:00 0°C° 0 mm 0 m/S 724 mmHg 77%
    11:00 +2°C° 0 mm 1 m/S 724 mmHg 75%
    12:00 +3°C° 0 mm 1 m/S 724 mmHg 72%
    13:00 +4°C° 0 mm 1 m/S 723 mmHg 70%
    14:00 +4°C° 0 mm 1 m/S 723 mmHg 73%
    15:00 +3°C° 0 mm 1 m/S 723 mmHg 75%
    16:00 +3°C° 0 mm 1 m/S 723 mmHg 78%
    17:00 +1°C° 0 mm 1 m/S 723 mmHg 82%
    18:00 0°C° 0 mm 1 m/S 723 mmHg 85%
    19:00 -1°C° 0 mm 1 m/S 724 mmHg 88%
    20:00 -2°C° 0 mm 1 m/S 724 mmHg 87%
    21:00 -2°C° 0 mm 1 m/S 724 mmHg 86%
    22:00 -2°C° 0 mm 1 m/S 724 mmHg 84%
    23:00 -3°C° 0 mm 1 m/S 723 mmHg 83%

    22 Januar, Dienstag

    Zeit Temperatur Niederschläge Wind Luftdruck Luftfeuchtigkeit
    00:00 -3°C° 0 mm 1 m/S 723 mmHg 82%
    01:00 -3°C° 0 mm 1 m/S 722 mmHg 81%
    02:00 -3°C° 0 mm 1 m/S 722 mmHg 79%
    03:00 -3°C° 0 mm 1 m/S 721 mmHg 77%
    04:00 -3°C° 0 mm 1 m/S 720 mmHg 75%
    05:00 -3°C° 0 mm 1 m/S 720 mmHg 73%
    06:00 -3°C° 0 mm 1 m/S 719 mmHg 71%
    07:00 -3°C° 0 mm 1 m/S 718 mmHg 69%
    08:00 -2°C° 0 mm 1 m/S 717 mmHg 66%
    09:00 -1°C° 0 mm 1 m/S 717 mmHg 64%
    10:00 +1°C° 0 mm 1 m/S 716 mmHg 62%
    11:00 +2°C° 0 mm 1 m/S 715 mmHg 59%
    12:00 +3°C° 0 mm 1 m/S 713 mmHg 56%
    13:00 +4°C° 0 mm 1 m/S 712 mmHg 53%
    14:00 +4°C° 0 mm 1 m/S 712 mmHg 58%
    15:00 +3°C° 0 mm 1 m/S 711 mmHg 63%
    16:00 +3°C° 0 mm 1 m/S 710 mmHg 68%
    17:00 +2°C° 0 mm 1 m/S 710 mmHg 69%
    18:00 +1°C° 0 mm 1 m/S 710 mmHg 71%
    19:00 -1°C° 0 mm 1 m/S 710 mmHg 73%
    20:00 -1°C° 0 mm 1 m/S 710 mmHg 72%
    21:00 -1°C° 0 mm 1 m/S 710 mmHg 71%
    22:00 -1°C° 0 mm 1 m/S 710 mmHg 70%
    23:00 -1°C° 0 mm 1 m/S 710 mmHg 70%
    Mehr zeigen